Station: Tasman Island  

  Atmospheric Gas Attenuation - ITU Rec 676-11   ----------------- dB/100km -----------------
Date Time Temp RH % AH g/m3 Dew Point Wind Direction Speed kph Gust kph Barometer mB Rainfall Since 9am 24GHz 47GHz 76GHz 122GHz 134GHz 241GHz
05/09 02:40 10.1 70 6.62 4.9 13 22 1005.2 0 15.5 23.5 33.3 87.2 76.2 260.3
05/09 02:30 10 71 6.67 5 13 20 1005.3 0 15.6 23.6 33.6 87.9 76.9 262.9
05/09 02:20 9.8 72 6.68 5 13 24 1005.4 0 15.7 23.6 33.7 88.2 77.3 264.0
05/09 02:10 9.8 72 6.68 5 15 24 1005.6 0 15.7 23.6 33.7 88.2 77.3 264.1
05/09 02:00 9.7 72 6.64 4.9 13 24 1005.7 0 15.6 23.6 33.6 87.9 76.9 262.6
05/09 01:50 9.8 71 6.59 4.8 17 26 1005.9 0 15.5 23.5 33.4 87.3 76.1 260.1
05/09 01:40 9.6 70 6.41 4.4 17 26 1006 0 15.1 23.3 32.8 85.7 74.0 252.6
05/09 01:30 9.7 70 6.46 4.5 17 26 1006.1 0 15.2 23.3 32.9 86.1 74.6 254.6
05/09 01:20 9.5 69 6.28 4.1 17 26 1006 0 14.8 23.1 32.3 84.5 72.5 247.1
05/09 01:10 9.1 70 6.21 3.9 15 22 1006 0 14.7 23.1 32.2 84.2 71.9 245.3
05/09 01:00 9.5 67 6.1 3.7 17 28 1006.1 0 14.4 22.8 31.6 82.6 70.2 239.2
05/09 00:50 9.8 66 6.13 3.8 17 24 1006.6 0 14.5 22.8 31.6 82.7 70.3 239.7
05/09 00:40 9.8 67 6.22 4 17 26 1006.7 0 14.7 23.0 32.0 83.6 71.5 243.7
05/09 00:30 9.7 66 6.09 3.7 17 24 1006.6 0 14.4 22.8 31.5 82.4 69.9 238.2
05/09 00:20 9.8 66 6.13 3.8 17 26 1006.6 0 14.5 22.8 31.6 82.7 70.3 239.7
05/09 00:10 9.6 67 6.14 3.8 19 28 1006.7 0 14.5 22.9 31.7 83.0 70.6 240.7
05/09 00:00 9.7 66 6.09 3.7 15 32 1006.7 0 14.4 22.8 31.5 82.4 69.9 238.2
04/09 23:50 9.9 65 6.07 3.6 17 28 1006.8 0 14.3 22.7 31.4 82.0 69.5 236.8
04/09 23:40 9.9 64 5.98 3.4 19 30 1006.7 0 14.2 22.6 31.0 81.0 68.4 232.8
04/09 23:30 9.7 65 5.99 3.4 17 28 1006.8 0 14.2 22.6 31.1 81.4 68.7 233.8
04/09 23:20 9.8 64 5.94 3.3 17 26 1006.8 0 14.1 22.5 30.9 80.7 68.0 231.3
04/09 23:10 9.9 64 5.98 3.4 17 32 1006.9 0 14.2 22.6 31.0 81.1 68.4 232.8
04/09 23:00 9.7 64 5.9 3.2 19 30 1007 0 14.0 22.5 30.8 80.5 67.6 229.9
04/09 22:50 9.8 64 5.94 3.3 17 30 1007 0 14.1 22.6 30.9 80.8 68.0 231.4
04/09 22:40 10 63 5.92 3.3 20 32 1007.1 0 14.0 22.5 30.8 80.4 67.5 229.9
04/09 22:30 9.9 64 5.98 3.4 19 30 1007.2 0 14.2 22.6 31.0 81.1 68.4 232.9
04/09 22:20 9.8 64 5.94 3.3 20 32 1007.2 0 14.1 22.6 30.9 80.8 68.0 231.4
04/09 22:10 9.9 64 5.98 3.4 24 35 1007.2 0 14.2 22.6 31.0 81.1 68.4 232.9
04/09 22:00 9.8 64 5.94 3.3 20 35 1007.1 0 14.1 22.6 30.9 80.8 68.0 231.4
04/09 21:50 9.8 64 5.94 3.3 19 32 1007.1 0 14.1 22.6 30.9 80.8 68.0 231.4
04/09 21:40 9.7 65 5.99 3.4 20 32 1007.1 0 14.2 22.7 31.1 81.4 68.7 233.9
04/09 21:30 9.5 66 6.01 3.5 17 26 1007.3 0 14.2 22.7 31.3 81.8 69.1 235.4
04/09 21:20 9.8 62 5.75 2.9 17 24 1007.2 0 13.7 22.3 30.2 78.9 65.6 223.1
04/09 21:10 9.8 62 5.75 2.9 17 28 1007.2 0 13.7 22.3 30.2 78.9 65.6 223.1
04/09 21:00 9.7 62 5.72 2.8 17 28 1007.3 0 13.6 22.3 30.1 78.7 65.3 222.1
04/09 20:50 9.8 62 5.75 2.9 17 26 1007.6 0 13.7 22.3 30.2 78.9 65.6 223.2
04/09 20:40 9.9 61 5.7 2.7 20 33 1007.3 0 13.6 22.2 30.0 78.3 64.9 220.7
04/09 20:30 10 62 5.83 3.1 20 32 1007.4 0 13.8 22.3 30.4 79.5 66.4 226.1
04/09 20:20 9.7 64 5.9 3.2 15 22 1007.3 0 14.0 22.5 30.8 80.5 67.6 230.0
04/09 20:10 9.8 64 5.94 3.3 17 26 1007.3 0 14.1 22.6 30.9 80.8 68.0 231.4
04/09 20:00 9.8 64 5.94 3.3 19 30 1007.5 0 14.1 22.6 30.9 80.8 68.0 231.5
04/09 19:50 9.7 64 5.9 3.2 17 22 1007.7 0 14.0 22.5 30.8 80.5 67.6 230.1
04/09 19:40 9.6 66 6.05 3.6 17 28 1008 0 14.3 22.8 31.4 82.2 69.6 237.0
04/09 19:30 10.3 60 5.75 2.9 17 24 1008 0 13.6 22.2 30.0 78.4 65.2 221.9
04/09 19:20 10.7 55 5.4 2 17 24 1007.9 0 12.9 21.6 28.6 74.6 60.6 205.8
04/09 19:10 10.7 55 5.4 2 17 24 1007.9 0 12.9 21.6 28.6 74.6 60.6 205.8
04/09 19:00 10.8 53 5.24 1.6 17 24 1007.8 0 12.5 21.3 28.0 72.9 58.6 198.7
04/09 18:50 10.8 53 5.24 1.6 17 22 1007.7 0 12.5 21.3 28.0 72.9 58.6 198.7
04/09 18:40 10.8 53 5.24 1.6 17 22 1007.6 0 12.5 21.3 28.0 72.9 58.6 198.7
04/09 18:30 11 51 5.11 1.3 17 24 1007.7 0 12.3 21.0 27.4 71.5 56.9 192.8
04/09 18:20 11 51 5.11 1.3 20 35 1007.5 0 12.3 21.0 27.4 71.5 56.9 192.7
04/09 18:10 10.8 51 5.04 1.1 20 33 1007.3 0 12.1 21.0 27.2 71.0 56.2 190.3
04/09 18:00 10.9 51 5.07 1.2 20 30 1007.2 0 12.2 21.0 27.3 71.1 56.5 191.3
04/09 17:50 10.9 50 4.97 0.9 20 33 1007.1 0 12.0 20.8 27.0 70.2 55.3 187.1
04/09 17:40 10.9 50 4.97 0.9 22 35 1007 0 12.0 20.8 26.9 70.2 55.3 187.1
04/09 17:30 11 50 5.01 1 20 32 1007.1 0 12.0 20.9 27.1 70.5 55.7 188.5
04/09 17:20 11.3 50 5.1 1.3 15 28 1007.3 0 12.2 21.0 27.3 71.1 56.6 191.6
04/09 17:10 11.4 52 5.34 1.9 17 33 1007.2 0 12.7 21.3 28.1 73.3 59.4 201.3
04/09 17:00 11.8 47 4.95 0.9 19 37 1007.4 0 11.9 20.6 26.6 69.2 54.5 184.2
04/09 16:50 11.8 51 5.37 2 11 22 1007.4 0 12.8 21.2 28.1 73.2 59.4 201.6
04/09 16:40 11.7 50 5.23 1.6 15 24 1007.4 0 12.5 21.1 27.6 72.0 57.8 196.0
04/09 16:30 11.6 49 5.09 1.3 13 24 1007.4 0 12.2 20.9 27.2 70.7 56.3 190.5
04/09 16:20 11.8 50 5.26 1.7 11 20 1007.6 0 12.6 21.1 27.7 72.2 58.1 197.1
04/09 16:10 11.9 50 5.3 1.8 9 19 1007.7 0 12.6 21.1 27.8 72.5 58.5 198.5
04/09 16:00 12.1 51 5.47 2.3 15 22 1007.7 0 13.0 21.3 28.4 74.0 60.4 205.1
04/09 15:50 12.1 50 5.36 2 13 24 1007.8 0 12.8 21.2 28.0 72.9 59.1 200.6
04/09 15:40 12.4 49 5.35 2 9 22 1007.7 0 12.7 21.1 27.8 72.5 58.8 199.4
04/09 15:30 12 50 5.33 1.9 17 32 1007.7 0 12.7 21.1 27.9 72.7 58.8 199.5
04/09 15:20 11.9 46 4.87 0.7 20 32 1007.6 0 11.7 20.5 26.3 68.4 53.5 180.8
04/09 15:10 12 45 4.8 0.5 20 33 1007.6 0 11.6 20.4 26.0 67.7 52.6 177.7
04/09 15:00 11.9 47 4.98 1 20 33 1007.7 0 12.0 20.7 26.7 69.5 54.8 185.3
04/09 14:50 12.1 47 5.04 1.1 19 30 1007.8 0 12.1 20.7 26.8 69.9 55.3 187.3
04/09 14:40 12.2 45 4.86 0.6 19 28 1007.9 0 11.7 20.4 26.2 68.1 53.2 179.7
04/09 14:30 12.4 45 4.92 0.8 20 33 1008 0 11.8 20.5 26.3 68.5 53.7 181.8
04/09 14:20 12.5 44 4.84 0.6 20 33 1008 0 11.6 20.3 26.0 67.7 52.8 178.3
04/09 14:10 12.5 46 5.06 1.2 19 32 1008 0 12.1 20.6 26.8 69.7 55.3 187.2
04/09 14:00 11.9 48 5.08 1.3 19 32 1008.1 0 12.2 20.8 27.0 70.4 56.0 189.5
04/09 13:50 11.2 52 5.27 1.7 19 28 1008.2 0 12.6 21.3 28.0 72.9 58.7 199.1
04/09 13:40 11 53 5.31 1.8 19 28 1008.2 0 12.7 21.4 28.2 73.5 59.3 201.3
04/09 13:30 10.9 51 5.07 1.2 19 28 1008.3 0 12.2 21.0 27.4 71.2 56.6 191.4
04/09 13:20 10.9 50 4.97 0.9 22 33 1008.4 0 12.0 20.9 27.0 70.3 55.4 187.3
04/09 13:10 11.3 49 5 1 20 35 1008.4 0 12.0 20.8 27.0 70.2 55.5 187.6
04/09 13:00 10.9 51 5.07 1.2 19 32 1008.5 0 12.2 21.0 27.4 71.2 56.6 191.5
04/09 12:50 10.8 53 5.24 1.6 19 33 1008.7 0 12.5 21.3 28.0 73.0 58.7 198.9
04/09 12:40 11.1 55 5.54 2.4 17 24 1008.8 0 13.2 21.7 29.0 75.7 62.1 210.9
04/09 12:30 11.1 58 5.84 3.2 13 20 1009.1 0 13.8 22.2 30.1 78.6 65.8 223.8
04/09 12:20 11.8 55 5.79 3.1 17 26 1009.2 0 13.7 21.9 29.7 77.5 64.6 219.7
04/09 12:10 12.2 55 5.94 3.4 15 24 1009.4 0 14.0 22.0 30.1 78.6 66.1 225.0
04/09 12:00 10.8 55 5.44 2.1 19 28 1009.5 0 13.0 21.6 28.8 75.0 61.1 207.5
04/09 11:50 10.4 55 5.3 1.8 19 30 1009.5 0 12.7 21.5 28.4 74.0 59.7 202.6
04/09 11:40 9.8 58 5.38 1.9 19 28 1009.5 0 12.9 21.8 28.9 75.4 61.2 207.5
04/09 11:30 9.6 58 5.31 1.8 19 28 1009.6 0 12.7 21.7 28.7 74.9 60.5 205.0
04/09 11:20 9.4 60 5.43 2 17 26 1009.8 0 13.0 22.0 29.2 76.3 62.1 210.8
04/09 11:10 9.3 61 5.48 2.2 17 24 1009.8 0 13.1 22.1 29.5 76.9 62.8 213.2
04/09 11:00 9.5 59 5.37 1.9 13 24 1009.9 0 12.9 21.9 29.0 75.6 61.3 207.9
04/09 10:50 9.7 56 5.16 1.4 11 24 1010 0 12.4 21.5 28.2 73.3 58.6 198.4
04/09 10:40 9.7 54 4.98 0.9 11 22 1010 0 12.0 21.2 27.5 71.6 56.4 190.8
04/09 10:30 9.6 52 4.76 0.2 17 26 1009.9 0 11.6 20.9 26.7 69.5 53.8 181.7
04/09 10:20 9.9 54 5.04 1 19 30 1009.8 0 12.1 21.3 27.6 72.0 57.0 192.8
04/09 10:10 10.2 53 5.04 1.1 20 30 1009.5 0 12.1 21.2 27.5 71.7 56.8 192.0

Last Refresh: 05-Sep-2026 02:19:36

Bureau of Meteorology